FW6253 Weather Reports


Display with metric or nautical units.
time (UTC)temp
F
wind
direction
speed
MPH
gust
MPH
rain 1hr
in
rain 24hr
in
rain mn
in
humidity
%
barometer
mb
20260902204616 101 164 5.0 9.0 0.00 0.00 0.00 40 1011.3
20260902204050 101 119 2.0 7.0 0.00 0.00 0.00 41 1011.4
20260902203552 100 157 2.0 7.0 0.00 0.00 0.00 42 1011.5
20260902203057 100 187 2.0 9.0 0.00 0.00 0.00 41 1011.6
20260902202557 100 0 3.0 9.0 0.00 0.00 0.00 42 1011.6
20260902202055 100 223 2.0 10.0 0.00 0.00 0.00 41 1011.8
20260902201557 100 219 5.0 10.0 0.00 0.00 0.00 41 1011.9
20260902201052 101 61 1.0 9.0 0.00 0.00 0.00 41 1011.9
20260902200549 100 182 3.0 9.0 0.00 0.00 0.00 40 1012.1
20260902200100 100 128 2.0 7.0 0.00 0.00 0.00 41 1012.3
20260902195553 99 159 2.0 10.0 0.00 0.00 0.00 43 1012.4
20260902195049 99 134 3.0 10.0 0.00 0.00 0.00 43 1012.4
20260902194622 99 279 3.0 7.0 0.00 0.00 0.00 42 1012.5
20260902194055 99 200 3.0 8.0 0.00 0.00 0.00 43 1012.5
20260902193549 98 0 2.0 8.0 0.00 0.00 0.00 43 1012.7
20260902193105 98 265 3.0 8.0 0.00 0.00 0.00 43 1012.7
20260902192549 98 75 1.0 8.0 0.00 0.00 0.00 45 1012.7
20260902192049 97 138 2.0 8.0 0.00 0.00 0.00 47 1012.8
20260902191608 97 154 2.0 6.0 0.00 0.00 0.00 47 1013.0
20260902191049 97 0 1.0 8.0 0.00 0.00 0.00 47 1013.0
20260902190556 97 0 3.0 9.0 0.00 0.00 0.00 46 1013.2
20260902185555 97 240 3.0 10.0 0.00 0.00 0.00 45 1013.3
20260902185055 97 298 4.0 10.0 0.00 0.00 0.00 46 1013.3
20260902184658 97 227 2.0 9.0 0.00 0.00 0.00 46 1013.4
20260902184054 97 115 3.0 9.0 0.00 0.00 0.00 46 1013.5
20260902183555 97 173 4.0 10.0 0.00 0.00 0.00 49 1013.6
20260902183139 96 0 4.0 10.0 0.00 0.00 0.00 50 1013.7
20260902182556 96 316 2.0 8.0 0.00 0.00 0.00 49 1013.8
20260902182054 95 200 3.0 7.0 0.00 0.00 0.00 49 1013.8
20260902181611 95 209 3.0 8.0 0.00 0.00 0.00 50 1013.9
20260902181055 94 208 3.0 8.0 0.00 0.00 0.00 49 1014.0
20260902180554 94 238 4.0 8.0 0.00 0.00 0.00 52 1014.1
20260902180106 94 239 2.0 11.0 0.00 0.00 0.00 53 1014.2
20260902175555 94 244 5.0 11.0 0.00 0.00 0.00 53 1014.2
20260902175057 94 223 2.0 10.0 0.00 0.00 0.00 52 1014.4
20260902174558 94 231 4.0 10.0 0.00 0.00 0.00 53 1014.4
20260902174055 94 184 2.0 7.0 0.00 0.00 0.00 53 1014.5
20260902173554 93 207 2.0 8.0 0.00 0.00 0.00 53 1014.5
20260902173103 93 163 3.0 10.0 0.00 0.00 0.00 53 1014.6
20260902172554 93 178 3.0 10.0 0.00 0.00 0.00 56 1014.7
20260902172058 93 280 3.0 8.0 0.00 0.00 0.00 56 1014.7
20260902171626 93 194 3.0 6.0 0.00 0.00 0.00 58 1014.8
20260902171055 93 0 2.0 6.0 0.00 0.00 0.00 61 1014.9
20260902170556 92 194 1.0 10.0 0.00 0.00 0.00 62 1014.9
20260902170103 91 113 2.0 10.0 0.00 0.00 0.00 62 1015.0
20260902165554 91 202 4.0 10.0 0.00 0.00 0.00 62 1015.1
20260902165054 91 193 2.0 9.0 0.00 0.00 0.00 62 1015.1
20260902164622 90 225 4.0 8.0 0.00 0.00 0.00 63 1015.1
20260902164054 90 215 1.0 8.0 0.00 0.00 0.00 64 1015.1
20260902163554 90 174 2.0 8.0 0.00 0.00 0.00 65 1015.1
20260902163101 89 204 3.0 8.0 0.00 0.00 0.00 65 1015.1
20260902162554 89 170 3.0 9.0 0.00 0.00 0.00 65 1015.1
20260902162054 88 190 4.0 9.0 0.00 0.00 0.00 67 1015.2
20260902161603 88 155 3.0 10.0 0.00 0.00 0.00 68 1015.2
20260902161055 87 259 4.0 11.0 0.00 0.00 0.00 68 1015.2
20260902160554 87 234 6.0 11.0 0.00 0.00 0.00 69 1015.2
20260902160105 87 200 3.0 11.0 0.00 0.00 0.00 70 1015.2
20260902155555 86 234 4.0 9.0 0.00 0.00 0.00 70 1015.2
20260902155053 86 277 4.0 11.0 0.00 0.00 0.00 72 1015.3
20260902154606 86 263 4.0 11.0 0.00 0.00 0.00 72 1015.3
20260902154058 85 229 4.0 10.0 0.00 0.00 0.00 74 1015.3
20260902153554 85 249 4.0 9.0 0.00 0.00 0.00 73 1015.2
20260902153102 85 219 5.0 9.0 0.00 0.00 0.00 75 1015.2
20260902152555 84 196 3.0 10.0 0.00 0.00 0.00 77 1015.2
20260902152054 84 229 3.0 10.0 0.00 0.00 0.00 78 1015.2
20260902151603 84 251 5.0 10.0 0.00 0.00 0.00 78 1015.2
20260902151054 83 228 4.0 8.0 0.00 0.00 0.00 79 1015.3
20260902150554 83 243 3.0 9.0 0.00 0.00 0.00 80 1015.3
20260902150105 83 314 3.0 9.0 0.00 0.00 0.00 81 1015.4
20260902145554 82 240 4.0 10.0 0.00 0.00 0.00 82 1015.4
20260902145054 82 234 5.0 11.0 0.00 0.00 0.00 82 1015.4
20260902144609 81 211 6.0 11.0 0.00 0.00 0.00 83 1015.4
20260902144054 81 198 3.0 9.0 0.00 0.00 0.00 85 1015.4
20260902143555 81 221 4.0 10.0 0.00 0.00 0.00 86 1015.3
20260902143104 80 225 3.0 12.0 0.00 0.00 0.00 87 1015.4
20260902142554 80 203 4.0 12.0 0.00 0.00 0.00 87 1015.4
20260902142054 80 204 4.0 8.0 0.00 0.00 0.00 88 1015.3
20260902141558 80 261 2.0 9.0 0.00 0.00 0.00 89 1015.3
20260902141054 79 220 4.0 9.0 0.00 0.00 0.00 89 1015.4
20260902140621 79 240 5.0 9.0 0.00 0.00 0.00 90 1015.4
20260902135549 78 236 3.0 7.0 0.00 0.00 0.00 90 1015.3
20260902135052 78 202 3.0 7.0 0.00 0.00 0.00 91 1015.3
20260902134606 78 248 2.0 7.0 0.00 0.00 0.00 91 1015.2
20260902134049 78 240 3.0 7.0 0.00 0.00 0.00 91 1015.2
20260902133749 78 236 3.0 7.0 0.00 0.00 0.00 91 1015.1
20260902133103 77 227 3.0 7.0 0.00 0.00 0.00 91 1015.1
20260902132646 77 215 3.0 6.0 0.00 0.00 0.00 91 1015.2
20260902132054 77 202 2.0 6.0 0.00 0.00 0.00 91 1015.2
20260902131613 77 227 3.0 6.0 0.00 0.00 0.00 91 1015.1
20260902131054 77 219 2.0 6.0 0.00 0.00 0.00 91 1015.1
20260902130554 77 209 3.0 6.0 0.00 0.00 0.00 91 1015.0
20260902130112 76 214 2.0 6.0 0.00 0.00 0.00 91 1014.9
20260902125554 76 213 2.0 4.0 0.00 0.00 0.00 91 1014.9
20260902125057 76 214 2.0 4.0 0.00 0.00 0.00 91 1014.9
20260902124600 76 215 0.0 2.0 0.00 0.00 0.00 91 1014.9
20260902124052 76 0 0.0 3.0 0.00 0.00 0.00 91 1014.7
20260902123557 76 0 1.0 3.0 0.00 0.00 0.00 91 1014.6
20260902123106 76 215 1.0 3.0 0.00 0.00 0.00 91 1014.6
20260902122553 76 215 1.0 3.0 0.00 0.00 0.00 91 1014.6
20260902122052 76 214 1.0 4.0 0.00 0.00 0.00 90 1014.5
20260902121604 76 214 1.0 4.0 0.00 0.00 0.00 90 1014.4
20260902121054 76 214 2.0 4.0 0.00 0.00 0.00 90 1014.3
20260902120554 76 215 2.0 4.0 0.00 0.00 0.00 90 1014.4
20260902115555 76 217 0.0 2.0 0.00 0.00 0.00 89 1014.4
20260902115053 76 0 0.0 0.0 0.00 0.00 0.00 89 1014.3
20260902114620 76 0 0.0 0.0 0.00 0.00 0.00 89 1014.2
20260902114053 76 0 0.0 2.0 0.00 0.00 0.00 89 1014.3
20260902113552 76 0 0.0 3.0 0.00 0.00 0.00 89 1014.3
20260902113100 76 217 0.0 3.0 0.00 0.00 0.00 89 1014.3
20260902112552 76 217 1.0 3.0 0.00 0.00 0.00 88 1014.2
20260902112053 76 217 1.0 3.0 0.00 0.00 0.00 88 1014.1
20260902111603 76 217 1.0 4.0 0.00 0.00 0.00 88 1014.1
20260902111053 76 217 2.0 5.0 0.00 0.00 0.00 88 1014.1
20260902110552 76 217 2.0 5.0 0.00 0.00 0.00 88 1014.2
20260902110108 76 217 2.0 6.0 0.00 0.00 0.00 87 1014.1
20260902105552 76 216 2.0 6.0 0.00 0.00 0.00 87 1014.1
20260902105052 76 215 1.0 5.0 0.00 0.00 0.00 87 1014.0
20260902104601 76 214 3.0 5.0 0.00 0.00 0.00 87 1014.0
20260902104052 76 208 3.0 5.0 0.00 0.00 0.00 86 1014.1
20260902103552 76 205 2.0 4.0 0.00 0.00 0.00 85 1014.1
20260902103108 76 206 0.0 3.0 0.00 0.00 0.00 85 1014.1
20260902102552 76 0 0.0 3.0 0.00 0.00 0.00 85 1014.3
20260902102052 76 0 0.0 3.0 0.00 0.00 0.00 84 1014.2
20260902101557 76 0 0.0 3.0 0.00 0.00 0.00 84 1014.1
20260902101052 76 206 1.0 5.0 0.00 0.00 0.00 84 1013.9
20260902100553 76 206 1.0 5.0 0.00 0.00 0.00 84 1014.1
20260902100101 77 0 1.0 5.0 0.00 0.00 0.00 84 1014.1
20260902095552 77 209 1.0 6.0 0.00 0.00 0.00 84 1014.0
20260902095052 77 207 3.0 6.0 0.00 0.00 0.00 84 1013.9
20260902094604 77 210 3.0 6.0 0.00 0.00 0.00 83 1014.0
20260902094052 77 207 2.0 6.0 0.00 0.00 0.00 83 1014.2
20260902093552 77 211 3.0 6.0 0.00 0.00 0.00 83 1014.3
20260902093057 77 210 3.0 6.0 0.00 0.00 0.00 83 1014.3
20260902092553 77 205 3.0 6.0 0.00 0.00 0.00 83 1014.3
20260902092053 77 203 3.0 6.0 0.00 0.00 0.00 82 1014.3
20260902091603 77 205 3.0 5.0 0.00 0.00 0.00 82 1014.2
20260902091055 77 198 2.0 4.0 0.00 0.00 0.00 82 1014.4
20260902090553 77 198 1.0 4.0 0.00 0.00 0.00 81 1014.3
20260902090059 77 198 2.0 5.0 0.00 0.00 0.00 81 1014.3
20260902085552 78 196 2.0 5.0 0.00 0.00 0.00 81 1014.4
20260902085119 78 196 1.0 3.0 0.00 0.00 0.00 81 1014.4
20260902084607 78 196 1.0 4.0 0.00 0.00 0.00 80 1014.5
20260902084052 78 0 1.0 4.0 0.00 0.00 0.00 80 1014.4
20260902083553 78 196 1.0 3.0 0.00 0.00 0.00 80 1014.4
20260902083059 78 0 1.0 3.0 0.00 0.00 0.00 80 1014.4
20260902082552 78 0 0.0 4.0 0.00 0.00 0.00 79 1014.4
20260902082052 78 0 0.0 4.0 0.00 0.00 0.00 79 1014.5
20260902081557 78 195 1.0 4.0 0.00 0.00 0.00 79 1014.5
20260902081054 78 195 2.0 4.0 0.00 0.00 0.00 79 1014.5
20260902080553 78 190 2.0 4.0 0.00 0.00 0.00 79 1014.5
20260902080103 78 190 2.0 4.0 0.00 0.00 0.00 78 1014.6
20260902075552 78 189 2.0 4.0 0.00 0.00 0.00 78 1014.6
20260902075055 79 187 2.0 5.0 0.00 0.00 0.00 78 1014.6
20260902074559 79 186 2.0 5.0 0.00 0.00 0.00 78 1014.6
20260902074053 79 186 2.0 6.0 0.00 0.00 0.00 78 1014.6
20260902073553 79 184 2.0 6.0 0.00 0.00 0.00 77 1014.6
20260902073057 79 181 2.0 5.0 0.00 0.00 0.00 77 1014.6
20260902072553 79 131 0.0 3.0 0.00 0.00 0.00 77 1014.5
20260902072055 79 128 0.0 3.0 0.00 0.00 0.00 77 1014.6
20260902071605 79 126 0.0 3.0 0.00 0.00 0.00 76 1014.6
20260902071055 79 126 0.0 3.0 0.00 0.00 0.00 76 1014.7
20260902070552 80 0 0.0 3.0 0.00 0.00 0.00 75 1014.6
20260902070100 80 0 0.0 3.0 0.00 0.00 0.00 75 1014.6
20260902065552 80 0 0.0 0.0 0.00 0.00 0.00 74 1014.5
20260902065053 80 0 0.0 0.0 0.00 0.00 0.00 74 1014.5
20260902064601 80 0 0.0 0.0 0.00 0.00 0.00 74 1014.6
20260902064055 80 0 0.0 0.0 0.00 0.00 0.00 73 1014.6
20260902063555 81 0 0.0 4.0 0.00 0.00 0.00 73 1014.6
20260902063109 81 0 0.0 4.0 0.00 0.00 0.00 73 1014.6
20260902062555 81 0 1.0 4.0 0.00 0.00 0.00 73 1014.6
20260902062054 81 0 0.0 4.0 0.00 0.00 0.00 73 1014.5
20260902061601 81 122 0.0 4.0 0.00 0.00 0.00 72 1014.5
20260902061053 81 0 0.0 2.0 0.00 0.00 0.00 72 1014.7
20260902060554 81 0 0.0 2.0 0.00 0.00 0.00 72 1014.6
20260902060128 82 0 0.0 5.0 0.00 0.00 0.00 71 1014.5
20260902055553 82 0 0.0 6.0 0.00 0.00 0.00 71 1014.6
20260902055056 82 130 1.0 6.0 0.00 0.00 0.00 71 1014.4
20260902054558 82 118 1.0 5.0 0.00 0.00 0.00 70 1014.3
20260902054051 82 138 0.0 3.0 0.00 0.00 0.00 70 1014.3
20260902053555 82 161 0.0 3.0 0.00 0.00 0.00 70 1014.3
20260902053102 82 178 0.0 3.0 0.00 0.00 0.00 70 1014.2
20260902052553 82 0 0.0 6.0 0.00 0.00 0.00 70 1014.2
20260902052053 82 189 1.0 6.0 0.00 0.00 0.00 70 1014.2
20260902051558 82 190 1.0 6.0 0.00 0.00 0.00 70 1014.2
20260902051053 83 200 3.0 6.0 0.00 0.00 0.00 69 1014.2
20260902050552 83 192 3.0 6.0 0.00 0.00 0.00 69 1014.2
20260902050105 83 0 1.0 5.0 0.00 0.00 0.00 69 1014.2
20260902045554 83 190 1.0 4.0 0.00 0.00 0.00 69 1014.2
20260902045054 83 0 0.0 4.0 0.00 0.00 0.00 69 1014.2
20260902044600 83 195 1.0 4.0 0.00 0.00 0.00 69 1014.2
20260902044053 83 200 1.0 7.0 0.00 0.00 0.00 69 1014.2
20260902043554 83 0 2.0 7.0 0.00 0.00 0.00 69 1014.1
20260902043107 84 196 1.0 6.0 0.00 0.00 0.00 68 1014.1
20260902042553 84 201 2.0 6.0 0.00 0.00 0.00 68 1014.0
20260902042054 84 196 1.0 5.0 0.00 0.00 0.00 68 1014.0
20260902041611 84 147 1.0 7.0 0.00 0.00 0.00 68 1014.0
20260902041052 84 0 2.0 7.0 0.00 0.00 0.00 67 1014.0
20260902040553 84 167 2.0 10.0 0.00 0.00 0.00 67 1014.0
20260902040105 85 136 1.0 10.0 0.00 0.00 0.00 67 1013.9
20260902035555 85 191 3.0 10.0 0.00 0.00 0.00 66 1013.9
20260902035052 85 155 3.0 8.0 0.00 0.00 0.00 66 1014.1
20260902034558 85 150 3.0 8.0 0.00 0.00 0.00 65 1014.0
20260902034055 86 135 2.0 9.0 0.00 0.00 0.00 65 1014.0
20260902033553 86 136 2.0 9.0 0.00 0.00 0.00 64 1014.1
20260902033108 86 134 2.0 9.0 0.00 0.00 0.00 64 1014.0
20260902032552 86 142 3.0 8.0 0.00 0.00 0.00 63 1013.8
20260902032053 87 132 2.0 9.0 0.00 0.00 0.00 63 1013.8
20260902031604 87 136 2.0 9.0 0.00 0.00 0.00 62 1013.6
20260902031053 87 117 2.0 9.0 0.00 0.00 0.00 61 1013.5
20260902030555 87 109 1.0 6.0 0.00 0.00 0.00 60 1013.5
20260902030109 87 124 1.0 6.0 0.00 0.00 0.00 60 1013.4
20260902025553 87 108 2.0 8.0 0.00 0.00 0.00 59 1013.2
20260902025053 88 140 0.0 8.0 0.00 0.00 0.00 59 1013.1
20260902024606 88 75 2.0 12.0 0.00 0.00 0.00 59 1013.1
20260902024051 88 0 2.0 12.0 0.00 0.00 0.00 58 1013.0
20260902023553 88 85 3.0 12.0 0.00 0.00 0.00 58 1012.9
20260902023059 88 95 2.0 9.0 0.00 0.00 0.00 58 1012.8
20260902022552 88 153 2.0 6.0 0.00 0.00 0.00 58 1012.8
20260902022053 88 107 0.0 3.0 0.00 0.00 0.00 58 1012.8
20260902021603 89 85 0.0 4.0 0.00 0.00 0.00 58 1012.7
20260902021053 89 0 1.0 5.0 0.00 0.00 0.00 58 1012.6
20260902020553 89 127 1.0 5.0 0.00 0.00 0.00 58 1012.6
20260902020101 89 111 0.0 6.0 0.00 0.00 0.00 57 1012.5
20260902015554 90 0 0.0 6.0 0.00 0.00 0.00 57 1012.4
20260902015050 90 87 0.0 6.0 0.00 0.00 0.00 56 1012.4
20260902014558 90 96 0.0 7.0 0.00 0.00 0.00 56 1012.2
20260902014057 90 103 1.0 7.0 0.00 0.00 0.00 55 1012.1
20260902013554 91 90 0.0 3.0 0.00 0.00 0.00 55 1012.2
20260902013054 91 0 0.0 4.0 0.00 0.00 0.00 54 1012.2
20260902012553 91 0 0.0 4.0 0.00 0.00 0.00 54 1012.1
20260902012053 91 86 1.0 6.0 0.00 0.00 0.00 53 1012.1
20260902011557 92 0 1.0 6.0 0.00 0.00 0.00 52 1012.0
20260902011054 92 51 1.0 6.0 0.00 0.00 0.00 51 1011.9
20260902010553 93 101 2.0 8.0 0.00 0.00 0.00 51 1011.7
20260902010058 93 69 2.0 8.0 0.00 0.00 0.00 50 1011.8
20260902005553 93 107 1.0 6.0 0.00 0.00 0.00 50 1011.8
20260902005056 94 111 1.0 8.0 0.00 0.00 0.00 49 1011.9
20260902004605 95 105 2.0 8.0 0.00 0.00 0.00 49 1011.8
20260902004050 96 90 2.0 8.0 0.00 0.00 0.00 47 1011.7
20260902003550 96 113 2.0 4.0 0.00 0.00 0.00 45 1011.8
20260902003102 96 0 0.0 3.0 0.00 0.00 0.00 45 1011.9
20260902002552 97 0 0.0 3.0 0.00 0.00 0.00 45 1011.9
20260902002053 97 107 0.0 3.0 0.00 0.00 0.00 45 1011.8
20260902001557 97 0 0.0 4.0 0.00 0.00 0.00 44 1011.8
20260902001053 97 114 1.0 4.0 0.00 0.00 0.00 44 1011.8
20260902000553 98 123 1.0 6.0 0.00 0.00 0.00 43 1011.8
20260902000117 98 105 1.0 7.0 0.00 0.00 0.00 43 1011.7
20260901235556 99 88 1.0 7.0 0.00 0.00 0.00 43 1011.8
20260901235052 99 91 1.0 4.0 0.00 0.00 0.00 43 1011.8
20260901234604 99 120 1.0 4.0 0.00 0.00 0.00 42 1011.8
20260901234053 99 115 1.0 4.0 0.00 0.00 0.00 43 1011.9
20260901233553 99 65 0.0 6.0 0.00 0.00 0.00 42 1011.9
20260901233058 99 0 1.0 6.0 0.00 0.00 0.00 41 1011.9
20260901232553 99 0 0.0 4.0 0.00 0.00 0.00 43 1011.9
20260901232053 99 128 1.0 5.0 0.00 0.00 0.00 41 1011.9
20260901231557 99 124 1.0 5.0 0.00 0.00 0.00 42 1011.9
20260901231053 99 53 0.0 6.0 0.00 0.00 0.00 41 1011.9
20260901230553 99 61 0.0 7.0 0.00 0.00 0.00 41 1011.9
20260901230115 99 64 2.0 8.0 0.00 0.00 0.00 41 1011.9
20260901225554 99 0 2.0 8.0 0.00 0.00 0.00 41 1012.0
20260901225053 99 102 2.0 5.0 0.00 0.00 0.00 42 1012.0
20260901224558 99 65 1.0 6.0 0.00 0.00 0.00 41 1012.0
20260901224053 99 0 2.0 7.0 0.00 0.00 0.00 41 1011.9
20260901223553 99 93 2.0 7.0 0.00 0.00 0.00 40 1011.9
20260901223114 100 89 2.0 7.0 0.00 0.00 0.00 39 1012.0
20260901222552 100 80 2.0 9.0 0.00 0.00 0.00 39 1012.0
20260901222055 100 106 1.0 9.0 0.00 0.00 0.00 40 1012.0
20260901221615 100 105 2.0 9.0 0.00 0.00 0.00 40 1011.9
20260901221053 100 132 1.0 7.0 0.00 0.00 0.00 39 1011.9
20260901220552 100 0 1.0 7.0 0.00 0.00 0.00 39 1011.9
20260901220134 100 74 1.0 6.0 0.00 0.00 0.00 40 1012.0
20260901215553 99 81 1.0 6.0 0.00 0.00 0.00 42 1012.1
20260901215055 99 145 2.0 6.0 0.00 0.00 0.00 43 1012.0
20260901214601 99 116 1.0 8.0 0.00 0.00 0.00 43 1012.0
20260901214053 99 86 3.0 8.0 0.00 0.00 0.00 42 1012.1
20260901213553 99 76 1.0 7.0 0.00 0.00 0.00 43 1012.1
20260901213119 99 86 1.0 5.0 0.00 0.00 0.00 42 1012.1
20260901212554 98 99 1.0 6.0 0.00 0.00 0.00 44 1012.3
20260901212054 98 0 3.0 9.0 0.00 0.00 0.00 44 1012.3
20260901211604 98 163 3.0 9.0 0.00 0.00 0.00 44 1012.3
20260901211053 98 70 2.0 7.0 0.00 0.00 0.00 44 1012.4
20260901210553 97 0 3.0 7.0 0.00 0.00 0.00 43 1012.6
20260901210106 98 0 2.0 7.0 0.00 0.00 0.00 43 1012.6
20260901205553 98 55 2.0 9.0 0.00 0.00 0.00 43 1012.8
20260901205052 98 53 2.0 9.0 0.00 0.00 0.00 43 1012.8